Covington, KY

1:27 AM EST on December 11, 2019 (GMT -0500)
Cincinnati-Northern KY International

Weather History for KCVG - October, 2019

Change the Weather History Date:

Thursday, October 24, 2019

  Actual Average Record
Temperature  
Mean Temperature 56 °F 53 °F  
Max Temperature 71 °F 63 °F 81 °F (1920)
Min Temperature 42 °F 43 °F 20 °F (1981)
Degree Days  
Heating Degree Days 8 12  
Month to date heating degree days 142 211  
Since 1 July heating degree days 142 269  
Cooling Degree Days 0 0  
Month to date cooling degree days 55 16  
Year to date cooling degree days 1497 1121  
Growing Degree Days 6 (Base 50)    
Moisture  
Dew Point 38 °F    
Average Humidity 52    
Maximum Humidity 71    
Minimum Humidity 33    
Precipitation  
Precipitation 0.00 in 0.10 in 1.55 in (2001)
Month to date precipitation 1.15 2.55  
Year to date precipitation 43.57 34.97  
Snow  
Snow 0.00 in 0.00 in - (0.0)
Month to date snowfall 0.0 0.2  
Since 1 July snowfall 0.0 0.2  
Since 1 September snowfall 0.0 0.2  
Snow Depth 0.00 in    
Sea Level Pressure  
Sea Level Pressure 30.21 in    
Wind  
Wind Speed 7 mph ()    
Max Wind Speed 15 mph    
Max Gust Speed 22 mph    
Visibility 10.0 miles    
Events      
T = Trace of Precipitation, MM = Missing Value Source: Averaged Metar Reports

Daily Weather History Graph

Daily Weather History Graph

Search for Another Location

Airport or City:

Astronomy

Oct. 24, 2019 Rise Set
Actual Time 7:57 AM EDT 6:47 PM EDT
Civil Twilight 7:29 AM EDT 7:15 PM EDT
Nautical Twilight 6:58 AM EDT 7:46 PM EDT
Astronomical Twilight 6:27 AM EDT 8:17 PM EDT
Moon 3:29 AM EDT (10/24) 5:12 PM EDT (10/24)
Length of Visible Light 11h 45m
Length of Day
10h 50m
Waning Crescent, 17% of the Moon is Illuminated
Oct 24
Waning Crescent
Oct 27
New
Nov 4
First Quarter
Nov 12
Full
Nov 19
Last Quarter

Hourly Weather History & Observations

Time (EDT) Temp. Windchill Dew Point Humidity Pressure Visibility Wind Dir Wind Speed Gust Speed Precip Events Conditions
12:52 AM 54.0 °F - 32.0 °F 43% 30.13 in 10.0 mi SSW 8.1 mph - N/A   Scattered Clouds
1:52 AM 50.0 °F - 32.0 °F 50% 30.16 in 10.0 mi SW 5.8 mph - N/A   Partly Cloudy
2:52 AM 44.1 °F 40.1 °F 33.1 °F 65% 30.17 in 10.0 mi South 6.9 mph - N/A   Partly Cloudy
3:52 AM 46.9 °F - 34.0 °F 61% 30.16 in 9.0 mi SSW 8.1 mph - N/A   Scattered Clouds
4:52 AM 46.0 °F 41.0 °F 34.0 °F 63% 30.17 in 10.0 mi South 10.4 mph - N/A   Partly Cloudy
5:52 AM 46.0 °F 41.9 °F 33.1 °F 61% 30.19 in 10.0 mi SSW 8.1 mph - N/A   Partly Cloudy
6:52 AM 46.0 °F 41.9 °F 34.0 °F 63% 30.20 in 10.0 mi SSW 8.1 mph - N/A   Partly Cloudy
7:52 AM 45.0 °F 40.6 °F 34.0 °F 65% 30.20 in 10.0 mi South 8.1 mph - N/A   Partly Cloudy
8:52 AM 48.9 °F - 34.0 °F 56% 30.22 in 10.0 mi South 10.4 mph - N/A   Partly Cloudy
9:52 AM 55.0 °F - 34.0 °F 45% 30.24 in 10.0 mi SSW 9.2 mph - N/A   Partly Cloudy
10:52 AM 57.9 °F - 35.1 °F 42% 30.25 in 10.0 mi SW 9.2 mph - N/A   Partly Cloudy
11:52 AM 63.0 °F - 37.0 °F 38% 30.24 in 10.0 mi WSW 8.1 mph - N/A   Scattered Clouds
12:52 PM 66.9 °F - 39.0 °F 36% 30.23 in 10.0 mi SSW 9.2 mph - N/A   Scattered Clouds
1:52 PM 69.1 °F - 39.0 °F 33% 30.21 in 10.0 mi West 10.4 mph - N/A   Mostly Cloudy
2:52 PM 69.1 °F - 39.9 °F 35% 30.19 in 10.0 mi Variable 5.8 mph - N/A   Mostly Cloudy
3:52 PM 70.0 °F - 39.9 °F 33% 30.19 in 10.0 mi West 8.1 mph - N/A   Mostly Cloudy
4:52 PM 70.0 °F - 39.9 °F 33% 30.19 in 10.0 mi Variable 4.6 mph - N/A   Mostly Cloudy
5:52 PM 66.9 °F - 42.1 °F 40% 30.20 in 10.0 mi NNW 10.4 mph - N/A   Mostly Cloudy
6:52 PM 62.1 °F - 43.0 °F 50% 30.21 in 10.0 mi NNW 11.5 mph - N/A   Mostly Cloudy
7:52 PM 57.9 °F - 43.0 °F 58% 30.24 in 10.0 mi North 8.1 mph - N/A   Scattered Clouds
8:52 PM 55.9 °F - 43.0 °F 62% 30.25 in 10.0 mi NNW 6.9 mph - N/A   Scattered Clouds
9:52 PM 54.0 °F - 43.0 °F 66% 30.26 in 10.0 mi Calm Calm - N/A   Partly Cloudy
10:52 PM 53.1 °F - 43.0 °F 69% 30.27 in 10.0 mi NNW 6.9 mph - N/A   Mostly Cloudy
11:52 PM 54.0 °F - 44.1 °F 69% 30.27 in 10.0 mi NNW 6.9 mph - N/A   Mostly Cloudy